#timestamp,LO_Frequency,Hit 
1501117215.2,286046784.0,N
1501117235.1,286046783.6,N
1501117236.0,286046783.6,N
1501117255.8,286046777.4,N
1501117275.6,286046777.9,N
1501117295.5,286046776.1,N
1501117315.3,286046775.0,N
1501117335.1,286046775.5,N
1501117355.9,286046772.5,N
1501117375.7,286046771.5,N
1501117395.5,286046770.8,N
1501117415.3,286046767.2,N
1501117435.2,286046767.2,N
1501117455.0,286046763.8,N
1501117455.9,286046763.8,N
1501117475.7,286046762.6,N
1501117495.6,286046761.4,N
1501117515.4,286046758.1,N
1501117535.2,286046756.9,N
1501117555.1,286046758.8,N
1501117556.0,286046758.8,N
1501117575.8,286046758.7,N
1501117595.6,286046758.6,N
1501117615.5,286046758.7,N
1501117635.3,286046758.1,N
1501117655.1,286046759.3,N
1501117675.9,286046761.1,N
1501117695.7,286046758.4,N
1501117715.5,286046757.4,N
1501117735.3,286046757.1,N
1501117755.2,286046756.0,N
1501117775.0,286046756.0,N
1501117775.9,286046756.0,N
1501117795.7,286046756.3,N
1501117815.6,286046755.3,N
1501117835.4,286046757.8,N
1501117855.2,286046754.9,N
1501117875.1,286046754.1,N
1501117876.0,286046754.1,N
1501117895.8,286046753.1,Y
1501117915.6,286046986.0,N
1501117935.5,286046984.2,N
1501117955.3,286046983.9,N
1501117975.1,286046989.6,N
1501117995.9,286046991.1,N
1501118015.7,286046991.6,N
1501118035.5,286046988.5,N
1501118055.4,286046991.1,N
1501118075.2,286046990.6,N
1501118095.0,286046992.3,N
1501118095.9,286046992.3,N
1501118115.7,286046994.0,N
1501118135.6,286046997.7,N
1501118155.4,286046995.3,N
1501118175.2,286046998.6,N
1501118195.1,286046996.9,N
1501118196.0,286046996.9,N
1501118215.8,286046995.8,N
1501118235.6,286046997.6,N
1501118255.5,286046996.5,N
1501118275.3,286046998.8,N
1501118295.1,286046999.4,N
1501118315.9,286046997.6,N
1501118335.7,286046995.0,N
1501118355.5,286047000.9,N
1501118375.4,286047002.6,N
1501118395.2,286046998.7,N
1501118415.0,286046999.3,N
1501118415.9,286046999.3,N
1501118435.7,286047002.7,N
1501118455.6,286047003.4,N
1501118475.4,286047001.7,N
1501118495.2,286047001.5,N
1501118515.1,286047003.6,N
1501118516.0,286047003.6,N
1501118535.8,286047003.4,N
1501118555.6,286047001.5,N
1501118575.5,286047001.8,N
1501118595.3,286047001.5,N
1501118615.1,286047004.0,N
1501118635.9,286047001.5,N
1501118655.7,286047002.9,N
1501118675.5,286047005.9,N
1501118695.4,286047001.5,N
1501118715.2,286047006.0,N
1501118735.0,286047005.4,N
1501118735.9,286047005.4,N
1501118755.7,286047005.4,N
1501118775.6,286047007.7,N
1501118795.4,286047008.4,N
1501118815.2,286047010.0,N
1501118835.1,286047013.5,N
1501118836.0,286047013.5,N
1501118855.8,286047010.7,N
1501118875.6,286047010.7,N
1501118895.5,286047010.7,N
1501118915.3,286047008.6,N
1501118935.1,286047004.6,N
1501118955.9,286047005.2,N
1501118975.7,286047005.8,N
1501118995.5,286047005.3,N
1501119015.3,286047003.2,N
1501119035.2,286047003.2,N
1501119055.0,286047004.3,N
1501119055.9,286047004.3,N
1501119075.7,286047005.0,N
1501119095.6,286047005.2,N
1501119115.4,286047006.3,N
1501119135.2,286047001.4,N
1501119155.1,286047005.6,N
1501119156.0,286047005.6,N
1501119175.8,286047004.6,N
1501119195.6,286047005.0,N
1501119215.5,286047005.6,N
1501119235.3,286047003.5,N
1501119255.1,286047006.0,N
1501119275.9,286047005.6,N
1501119295.7,286047005.5,N
1501119315.5,286047003.1,N
1501119335.3,286047005.6,N
1501119355.2,286047007.4,N
1501119375.0,286047005.3,N
1501119375.9,286047005.3,N
1501119395.7,286047005.6,N
1501119415.6,286047003.2,N
1501119435.4,286047004.2,N
1501119455.2,286047003.6,N
1501119475.1,286047009.2,N
1501119476.0,286047009.2,N
1501119495.8,286047008.7,N
1501119515.6,286047008.1,N
1501119535.5,286047012.3,N
1501119555.3,286047009.3,N
1501119575.1,286047008.4,N
1501119595.8,286047001.5,N
1501119615.7,286046999.9,N
1501119635.5,286046997.4,N
1501119655.3,286046997.4,N
1501119675.2,286046999.5,N
1501119695.0,286046997.7,N
1501119695.9,286046997.7,N
1501119715.7,286046993.5,N
1501119735.6,286046992.5,N
1501119755.4,286046990.6,N
1501119775.2,286046990.7,N
1501119795.1,286046990.5,N
1501119796.0,286046990.5,N
1501119815.8,286046990.9,N
1501119835.6,286046990.8,N
1501119855.5,286046988.8,N
1501119875.3,286046987.4,N
1501119895.1,286046988.2,N
1501119915.8,286046985.0,N
1501119935.7,286046983.0,N
1501119955.5,286046984.3,N
1501119975.3,286046985.4,N
1501119995.2,286046983.1,N
1501120015.9,286046980.0,N
1501120035.7,286046980.3,N
1501120055.6,286046981.5,N
1501120075.4,286046979.7,N
1501120095.2,286046979.9,N
1501120115.1,286046978.2,N
1501120116.0,286046978.2,N
1501120135.8,286046978.0,N
1501120155.6,286046978.6,N
1501120175.4,286046972.9,N
1501120195.3,286046975.5,N
1501120215.1,286046978.1,N
1501120235.8,286046982.8,N
1501120255.7,286046989.8,N
1501120275.5,286046988.8,N
1501120295.3,286046993.1,N
1501120315.2,286046991.9,N
1501120335.9,286046994.6,N
1501120355.7,286046992.2,N
1501120375.6,286046994.1,N
1501120395.4,286046995.7,N
1501120415.2,286046999.6,N
1501120435.0,286046997.1,N
1501120436.0,286046997.1,N
1501120455.8,286046997.3,N
1501120475.6,286046997.9,N
1501120495.4,286046995.5,N
1501120515.3,286046995.9,N
1501120535.1,286046995.2,N
1501120555.8,286046994.9,N
1501120575.7,286046993.4,N
1501120595.5,286046994.4,N
1501120615.3,286046995.3,N
1501120635.2,286047000.8,N
1501120655.9,286047000.8,N
1501120675.7,286046999.9,N
1501120695.6,286047000.7,N
1501120715.4,286047001.1,N
1501120735.2,286047003.2,N
1501120755.0,286047004.9,N
1501120756.0,286047004.9,N
1501120775.8,286047008.7,N
1501120795.6,286047005.8,N
